Shaonian Xing (43199 NORAD) Tracking and Keplerian Element Data

This shows tracking and keplerian element data for the satellite.

Feedback or suggestion? Click here.




ElementValue
Catalog43199
NameShaonian Xing
Epoch Orbit2979
Epoch Day228.96062049
Epoch Year2018
RAAN356.3286
Inclination97.3415
Eccentricity0.0016511
Argument of Perigee306.0773
Mean Anonmoly53.8931
Mean Motion15.23829807
Decay Rate8.83E-06
L11 43199U 18015H 18228.96062049 .00000883 00000-0 39468-4 0 9991
L22 43199 097.3415 356.3286 0016511 306.0773 053.8931 15.23829807029791

Live tracking and technical data element details for Shaonian Xing (NORAD 43199). Shaonian Xing can be tracked NOW for your location showing map with azimuth and elevation plus other details from your city location.

Track the satellite on the map from your city or location and see movement details for azimuth, elevation, latitude, longitude, range, height, and movement on the map or in text.







IsCatalogInMostPopularTable: catalog: 43199, numindb: 127
Update: records affected: 1



GetName: 43199 Shaonian Xing

Hit Count: updated at: Fri, 17 Aug 2018 13:19:51 GMT